DMSP 5D-2 F11 DEB, 35534

Orbit data source: Space-Track

DMSP 5D-2 F11 DEB, 35534 is space debris in SSO originally from a launch on Thu, 28 Nov 1991 UTC launched from the Air Force Western Test Range (AFWTR). Debris objects in space refer to the collection of defunct objects orbiting the Earth. Examples of debris include non-operational satellites, rocket bodies, and fragments generated from explosions, collisions, or faulty payload assembly.

Loading next visibility...
Identifier
35534, 1991-082CQ
Orbit
SSO
Country
Flag of USUS
Related business
Manufacturer
Unknown
Mission
Spacecraft
Bus & Motor
Unknown
Mass
Unknown
Launch date (UTC)
1991-11-28 (34 years ago)
Launch vehicle
Unknown
Launch site
Air Force Western Test Range (AFWTR)
Object type
Payload
Rocket body
Debris
Shape & HBR
Unknown shape, 0.1 m
Radar Cross Section
Small (<0.1 m²)

Expand to show TLE details & history
Last TLE update: 2 days ago

TLE from 2 days ago
0 DMSP 5D-2 F11 DEB
1 35534U 91082CQ  26133.24390281  .00016812  00000-0  19806-2 0  9998
2 35534  98.7999 229.2524 0023561 116.7922 300.8621 14.84669832754595
Epoch: 2026-05-13T05:51Z
TLE epoch observation values (Epoch: 2026-05-13T05:51:13.202Z)
Latitude
56.48447°
Longitude
-103.00238°
Altitude
615.623 km
Speed
7.561 km/s
True Right ascension
14h 23m 14s
True Declination
56° 19' 22"
Sunlit
Object was in daylight at epoch
Visualization orbit readout
Latitude
Unknown
Longitude
Unknown
Altitude
Unknown
Speed
Unknown
Apparent Right ascension
Unknown
Apparent Declination
Unknown
Sunlit
N/A
Visualization observer readout
Local Sidereal Time
19:52:18
Azimuth
Unknown
Elevation
Unknown
Doppler factor
Unknown
Orbital elements
Apogee altitude
628.168 km
Perigee altitude
595.231 km
Semi-major axis
6,989.837 km
Eccentricity
0.00236
Inclination
98.7999°
RAAN
229.2524°
Arg. of periapsis
116.7922°
True anomaly
300.62999°
Mean anomaly
300.8621°
Eccentric anomaly
300.74608°
Mean motion
3.71401 °/min
Orbital period
96.93 mins
BSTAR
0.0019806
Loading maneuver chart data...
Computing Atmospheric mass density...

Documentation

Showing up to 5 results
|